Location: Sungai Bunut
(2.6333°N, 113.7333°E)
Time: 09:05:43
(UTC+00:00)

Transit 2A Rocket - Pass Details

Date: 12 December 2023
Orbit: 590 x 905 km, 66.7° (Epoch: 01 March)

Event Time Altitude Azimuth Distance (km) Brightness Sun altitude
Rises 09:45:02 0° 186° (S) 3,338 8.7 6.7°
Reaches altitude 10° 09:47:43 10° 178° (S) 2,353 7.9 6.1°
Maximum altitude 09:52:40 37° 111° (ESE) 1,133 5.6 4.9°
Drops below altitude 10° 09:57:12 10° 43° (NE) 2,151 6.8 3.9°
Sets 09:59:33 0° 35° (NE) 3,016 7.6 3.3°
